Sault Ste Marie, MI

7:26 AM EDT on July 28, 2017 (GMT -0400)
Sault Ste Marie Municipal / Sanderson Field

Weather History for KANJ - May, 2013

Change the Weather History Date:

Friday, May 3, 2013

  Actual Average Record
Temperature  
Mean Temperature 53 °F 48 °F  
Max Temperature 69 °F 58 °F 82 °F (1934)
Min Temperature 37 °F 38 °F 22 °F (1926)
Degree Days  
Heating Degree Days 12 17  
Month to date heating degree days 33 53  
Since 1 July heating degree days 7881 8122  
Cooling Degree Days 0 0  
Month to date cooling degree days 0 0  
Year to date cooling degree days 0 0  
Growing Degree Days 2 (Base 50)    
Moisture  
Dew Point 37 °F    
Average Humidity 60    
Maximum Humidity 85    
Minimum Humidity 34    
Precipitation  
Precipitation 0.00 in 0.08 in 0.85 in (1993)
Month to date precipitation 0.00 0.23  
Year to date precipitation 11.81 8.10  
Sea Level Pressure  
Sea Level Pressure 30.16 in    
Wind  
Wind Speed 8 mph (ESE)    
Max Wind Speed 21 mph    
Max Gust Speed 28 mph    
Visibility 10 miles    
Events      
T = Trace of Precipitation, MM = Missing Value Source: NWS Daily Summary

Daily Weather History Graph

Daily Weather History Graph

Search for Another Location

Airport or City:

Trip Planner

Search our weather history database for the weather conditions in past years. The results will help you decide how hot, cold, wet, or windy it might be!

Date:

Astronomy

May. 03, 2013 Rise Set
Actual Time 6:19 AM EDT 8:49 PM EDT
Civil Twilight 5:46 AM EDT 9:23 PM EDT
Nautical Twilight 5:03 AM EDT 10:06 PM EDT
Astronomical Twilight 4:15 AM EDT 10:55 PM EDT
Moon 3:06 AM EDT (5/3) 2:22 PM EDT (5/3)
Length of Visible Light 15h 37m
Length of Day
14h 29m
Last Quarter, 37% of the Moon is Illuminated
May 3
Last Quarter
May 9
New
May 18
First Quarter
May 25
Full
May 31
Last Quarter

Hourly Weather History & Observations

Time (EDT) Temp. Windchill Dew Point Humidity Pressure Visibility Wind Dir Wind Speed Gust Speed Precip Events Conditions
12:55 AM 37.9 °F 34.4 °F 33.1 °F 83% 30.19 in 10.0 mi West 4.6 mph - N/A   Clear
1:55 AM 39.0 °F 36.8 °F 34.0 °F 82% 30.18 in 10.0 mi West 3.5 mph - N/A   Overcast
2:55 AM 39.0 °F 35.7 °F 35.1 °F 86% 30.17 in 10.0 mi West 4.6 mph - N/A   Mostly Cloudy
3:55 AM 39.9 °F 37.8 °F 35.1 °F 83% 30.17 in 10.0 mi West 3.5 mph - N/A   Overcast
4:55 AM 39.9 °F - 35.1 °F 83% 30.18 in 10.0 mi Calm Calm - N/A   Partly Cloudy
5:55 AM 39.0 °F - 35.1 °F 86% 30.19 in 10.0 mi Calm Calm - N/A   Mostly Cloudy
6:55 AM 46.0 °F 43.1 °F 36.0 °F 68% 30.19 in 10.0 mi ENE 5.8 mph - N/A   Partly Cloudy
7:55 AM 48.0 °F - 35.1 °F 61% 30.20 in 10.0 mi ENE 8.1 mph - N/A   Clear
8:55 AM 52.0 °F - 36.0 °F 54% 30.19 in 10.0 mi East 5.8 mph - N/A   Clear
9:55 AM 59.0 °F - 37.9 °F 46% 30.19 in 10.0 mi East 5.8 mph - N/A   Clear
10:55 AM 63.0 °F - 39.0 °F 41% 30.18 in 10.0 mi East 8.1 mph - N/A   Overcast
11:55 AM 66.0 °F - 39.0 °F 37% 30.17 in 10.0 mi ESE 10.4 mph - N/A   Clear
12:55 PM 66.0 °F - 37.9 °F 36% 30.16 in 10.0 mi ESE 10.4 mph 19.6 mph N/A   Mostly Cloudy
1:55 PM 66.9 °F - 39.0 °F 36% 30.15 in 10.0 mi ESE 12.7 mph - N/A   Mostly Cloudy
2:55 PM 66.9 °F - 37.0 °F 33% 30.15 in 10.0 mi ESE 16.1 mph 25.3 mph N/A   Mostly Cloudy
3:55 PM 66.0 °F - 37.0 °F 34% 30.15 in 10.0 mi ESE 12.7 mph 23.0 mph N/A   Overcast
4:55 PM 64.9 °F - 37.0 °F 36% 30.14 in 10.0 mi ESE 15.0 mph 24.2 mph N/A   Mostly Cloudy
5:55 PM 64.9 °F - 36.0 °F 34% 30.15 in 10.0 mi ESE 12.7 mph - N/A   Overcast
6:55 PM 64.0 °F - 37.0 °F 37% 30.14 in 10.0 mi ESE 9.2 mph 16.1 mph N/A   Overcast
7:55 PM 64.0 °F - 37.9 °F 38% 30.14 in 10.0 mi East 5.8 mph - N/A   Mostly Cloudy
8:55 PM 63.0 °F - 37.9 °F 40% 30.14 in 10.0 mi East 5.8 mph - N/A   Mostly Cloudy
9:55 PM 63.0 °F - 37.9 °F 40% 30.14 in 10.0 mi ESE 5.8 mph - N/A   Overcast
10:55 PM 61.0 °F - 39.9 °F 46% 30.14 in 10.0 mi East 4.6 mph - N/A   Partly Cloudy
11:55 PM 61.0 °F - 39.9 °F 46% 30.13 in 10.0 mi ESE 6.9 mph - N/A   Clear